Terminal Aerodrome Forecast
Issued by NWS

Home | Current Version | Previous Version | Text Only | Print | Product List | Glossary On
Versions: 1 2 3 4 5 6 7 8 9 10 11 12 13 14
694
FTUS46 KLOX 030325 AAA
TAFBUR
TAF AMD
KBUR 030325Z 0303/0324 08006KT P6SM SKC WS010/04030KT
     FM030600 35007KT P6SM SKC WS010/04035KT
     FM030800 34012KT P6SM SKC WS010/05035KT
     FM031800 05014KT P6SM SKC
     FM032100 03009KT P6SM SKC=

USA.gov is the U.S. government's official web portal to all federal, state and local government web resources and services.